TimeHST,TemperatureF,Dew PointF,Humidity,Sea Level PressureIn,VisibilityMPH,Wind Direction,Wind SpeedMPH,Gust SpeedMPH,PrecipitationIn,Events,Conditions,WindDirDegrees,DateUTC
12:53 AM,75.0,70.0,84,29.98,10.0,NE,5.8,-,N/A,,Partly Cloudy,50,2013-07-25 10:53:00
1:11 AM,75.2,69.8,83,29.98,10.0,NE,8.1,-,N/A,,Mostly Cloudy,50,2013-07-25 11:11:00
1:49 AM,75.2,69.8,83,29.97,10.0,ENE,8.1,-,N/A,,Scattered Clouds,70,2013-07-25 11:49:00
1:53 AM,75.0,69.1,82,29.97,10.0,ENE,9.2,-,N/A,,Mostly Cloudy,60,2013-07-25 11:53:00
2:06 AM,75.2,69.8,83,29.97,10.0,East,9.2,-,N/A,,Scattered Clouds,80,2013-07-25 12:06:00
2:17 AM,75.2,69.8,83,29.97,10.0,ENE,8.1,-,N/A,,Mostly Cloudy,70,2013-07-25 12:17:00
2:53 AM,75.0,68.0,79,29.96,10.0,ENE,9.2,-,N/A,,Overcast,60,2013-07-25 12:53:00
3:03 AM,75.2,69.8,83,29.97,10.0,NE,9.2,-,N/A,,Mostly Cloudy,50,2013-07-25 13:03:00
3:53 AM,75.0,69.1,82,29.96,10.0,ENE,9.2,-,N/A,,Mostly Cloudy,70,2013-07-25 13:53:00
4:53 AM,73.9,69.1,85,29.96,10.0,ENE,10.4,-,N/A,,Scattered Clouds,60,2013-07-25 14:53:00
5:53 AM,73.9,68.0,82,29.97,10.0,ENE,5.8,-,N/A,,Partly Cloudy,60,2013-07-25 15:53:00
6:53 AM,75.0,69.1,82,29.98,10.0,NE,9.2,-,N/A,,Scattered Clouds,50,2013-07-25 16:53:00
7:53 AM,78.1,68.0,71,30.00,10.0,ENE,9.2,-,N/A,,Clear,60,2013-07-25 17:53:00
8:53 AM,79.0,68.0,69,30.00,10.0,ENE,9.2,-,N/A,,Clear,60,2013-07-25 18:53:00
9:53 AM,80.1,68.0,67,30.00,10.0,NE,6.9,-,N/A,,Clear,50,2013-07-25 19:53:00
10:53 AM,81.0,68.0,65,29.99,10.0,NE,10.4,-,N/A,,Clear,50,2013-07-25 20:53:00
11:53 AM,82.0,69.1,65,30.00,10.0,NE,10.4,-,N/A,,Clear,40,2013-07-25 21:53:00
12:53 PM,82.0,69.1,65,29.99,10.0,ENE,11.5,-,N/A,,Partly Cloudy,60,2013-07-25 22:53:00
1:53 PM,81.0,69.1,67,29.98,10.0,ENE,10.4,-,N/A,,Clear,60,2013-07-25 23:53:00
2:53 PM,82.0,68.0,62,29.97,10.0,ENE,9.2,-,N/A,,Clear,60,2013-07-26 00:53:00
3:53 PM,81.0,69.1,67,29.96,10.0,NE,11.5,18.4,N/A,,Partly Cloudy,50,2013-07-26 01:53:00
4:53 PM,80.1,69.1,69,29.95,10.0,NE,11.5,-,N/A,,Clear,40,2013-07-26 02:53:00
5:53 PM,79.0,69.1,72,29.96,10.0,NE,11.5,-,N/A,,Partly Cloudy,50,2013-07-26 03:53:00
6:53 PM,77.0,68.0,74,29.98,10.0,NE,10.4,-,N/A,,Partly Cloudy,50,2013-07-26 04:53:00
7:53 PM,75.9,68.0,76,29.98,10.0,NE,10.4,-,N/A,,Partly Cloudy,50,2013-07-26 05:53:00
8:53 PM,75.9,68.0,76,29.99,10.0,ENE,11.5,-,N/A,,Clear,60,2013-07-26 06:53:00
9:53 PM,75.9,68.0,76,30.00,10.0,ENE,12.7,-,N/A,,Mostly Cloudy,70,2013-07-26 07:53:00
10:53 PM,75.0,68.0,79,30.01,10.0,ENE,13.8,-,N/A,,Partly Cloudy,70,2013-07-26 08:53:00
11:53 PM,75.9,68.0,76,30.00,10.0,ENE,11.5,-,N/A,,Mostly Cloudy,60,2013-07-26 09:53:00